Regional Weather Roundup
Issued by NWS

Home | Current Version | Previous Version | Text Only | Print | Product List | Glossary On
Versions: 1 2 3 4 5 6 7 8 9 10 11 12 13 14 15 16 17 18 19 20 21 22 23 24 25 26 27 28 29 30 31 32 33 34 35 36 37 38 39 40 41 42 43 44 45 46 47 48 49 50
000
ASUS43 KTOP 031408
RWRKS

WEATHER ROUNDUP FOR KANSAS
NATIONAL WEATHER SERVICE GOODLAND KS
800 AM CST SAT DEC 03 2016

NOTE:  "FAIR" INDICATES FEW OR NO CLOUDS BELOW 12,000 FEET WITH NO
SIGNIFICANT WEATHER AND/OR OBSTRUCTIONS TO VISIBILITY.

KSZ001>006-013>018-027>032-041>047-031500-
NORTHWEST KANSAS

CITY           SKY/WX    TMP DP  RH WIND       PRES   REMARKS
GOODLAND       CLOUDY    23  15  71 S7        30.12S
HAYS           MIX PCPN  32  29  88 NE5       30.20F
HILL CITY      CLOUDY    31  26  82 NE3       30.21R
RUSSELL        MIX PCPN  32  28  85 N3        30.19F
$$

KSZ061>065-074>080-084>089-031500-
SOUTHWEST KANSAS

CITY           SKY/WX    TMP DP  RH WIND       PRES   REMARKS
DODGE CITY     CLOUDY    33  32  96 NE6       30.16F FOG
ELKHART          N/A     31  26  82 N1          N/A
GARDEN CITY    CLOUDY    32  31  96 CALM      30.16R FOG
GREAT BEND     LGT RAIN  34  30  85 N8        30.20S
LIBERAL        CLOUDY    34  28  80 E3        30.17R
PRATT          DRIZZLE   33  30  86 NE5       30.20R
$$

KSZ066>073-081>083-090>101-031500-
SOUTHEAST KANSAS

CITY           SKY/WX    TMP DP  RH WIND       PRES   REMARKS
CHANUTE        PTCLDY    42  28  57 E9        30.22F
COFFEYVILLE    CLOUDY    44  33  65 E5        30.22S
HUTCHINSON     CLOUDY    37  29  72 E7        30.20S
MEDICINE LODGE   N/A     39  32  76 CALM      30.21R
NEWTON         LGT RAIN  35  30  82 E6        30.21R
PARSONS        CLOUDY    43  30  60 VRB5      30.23S
WICHITA INTL   CLOUDY    41  31  67 E6        30.20R
WICHITA JABRA  CLOUDY    39  31  72 NE6       30.20S
WICHITA MCCONL CLOUDY    40  28  61 E6        30.20R
WINFIELD       CLOUDY    43  28  55 E5        30.20S
$$

KSZ007>012-019>026-033>040-048>060-102>105-031500-
NORTHEAST KANSAS

CITY           SKY/WX    TMP DP  RH WIND       PRES   REMARKS
CONCORDIA      CLOUDY    32  29  88 E3        30.24S
EMPORIA        CLOUDY    37  28  70 E9        30.23F
LAWRENCE       CLOUDY    34  30  85 E7        30.29S
MANHATTAN      CLOUDY    32  28  85 NE5       30.26F
MARYSVILLE     CLOUDY    32  28  86 S3        30.25F
OLATHE IND     CLOUDY    36  29  75 E6        30.29R
OLATHE EXE     CLOUDY    35  28  75 E7        30.29R
SALINA         CLOUDY    36  28  73 E5        30.24F
TOPEKA BILLARD CLOUDY    33  29  85 N3        30.28F
TOPEKA FORBES  CLOUDY    36  30  79 E3        30.27F
$$



USA.gov is the U.S. government's official web portal to all federal, state and local government web resources and services.